TimeCST,TemperatureF,Dew PointF,Humidity,Sea Level PressureIn,VisibilityMPH,Wind Direction,Wind SpeedMPH,Gust SpeedMPH,PrecipitationIn,Events,Conditions,WindDirDegrees,DateUTC
12:41 AM,18.0,10.9,74,30.02,10.0,NW,10.4,-,N/A,,Partly Cloudy,320,2014-02-15 06:41:00
12:54 AM,17.1,10.9,77,30.05,10.0,NW,13.8,-,N/A,,Clear,310,2014-02-15 06:54:00
1:54 AM,16.0,9.0,74,30.07,10.0,WNW,13.8,-,N/A,,Clear,300,2014-02-15 07:54:00
2:54 AM,15.1,9.0,77,30.09,10.0,NW,9.2,-,N/A,,Clear,310,2014-02-15 08:54:00
3:54 AM,14.0,7.0,74,30.13,10.0,NW,12.7,-,N/A,,Clear,310,2014-02-15 09:54:00
4:54 AM,12.9,7.0,77,30.14,10.0,NNW,3.5,-,N/A,,Clear,330,2014-02-15 10:54:00
5:54 AM,12.0,6.1,77,30.17,10.0,WNW,6.9,-,N/A,,Clear,300,2014-02-15 11:54:00
6:54 AM,12.0,6.1,77,30.17,10.0,NNW,3.5,-,N/A,,Clear,330,2014-02-15 12:54:00
7:54 AM,14.0,7.0,74,30.20,10.0,Variable,3.5,-,N/A,,Clear,0,2014-02-15 13:54:00
8:54 AM,16.0,8.1,71,30.22,10.0,Calm,Calm,-,N/A,,Clear,0,2014-02-15 14:54:00
9:54 AM,19.0,12.0,74,30.22,10.0,WSW,3.5,-,N/A,,Clear,240,2014-02-15 15:54:00
10:54 AM,21.9,14.0,72,30.23,10.0,South,4.6,-,N/A,,Clear,190,2014-02-15 16:54:00
11:54 AM,25.0,17.1,72,30.20,10.0,SSW,6.9,-,N/A,,Clear,210,2014-02-15 17:54:00
12:54 PM,26.1,18.0,71,30.20,10.0,South,6.9,-,N/A,,Clear,190,2014-02-15 18:54:00
1:54 PM,26.1,17.1,69,30.20,10.0,South,6.9,-,N/A,,Clear,190,2014-02-15 19:54:00
2:54 PM,27.0,17.1,66,30.17,10.0,South,8.1,-,N/A,,Overcast,170,2014-02-15 20:54:00
3:54 PM,27.0,17.1,66,30.15,10.0,SSE,5.8,-,N/A,,Overcast,160,2014-02-15 21:54:00
4:54 PM,27.0,17.1,66,30.14,10.0,South,5.8,-,N/A,,Overcast,180,2014-02-15 22:54:00
5:34 PM,27.0,17.1,66,30.10,5.0,SE,9.2,-,0.00,Snow,Light Snow,130,2014-02-15 23:34:00
5:54 PM,27.0,18.0,69,30.11,9.0,SE,8.1,-,0.00,,Overcast,130,2014-02-15 23:54:00
6:01 PM,27.0,18.0,69,30.08,10.0,ESE,6.9,-,N/A,,Overcast,120,2014-02-16 00:01:00
6:54 PM,28.0,18.0,66,30.12,10.0,South,6.9,-,N/A,,Overcast,170,2014-02-16 00:54:00
7:54 PM,28.9,18.0,64,30.12,10.0,SSE,3.5,-,N/A,,Overcast,150,2014-02-16 01:54:00
8:54 PM,28.9,21.0,72,30.09,7.0,SSE,4.6,-,0.00,,Overcast,160,2014-02-16 02:54:00
9:54 PM,28.9,21.0,72,30.06,9.0,South,6.9,-,N/A,,Overcast,180,2014-02-16 03:54:00
10:54 PM,30.0,21.9,72,30.05,9.0,SSW,5.8,-,N/A,,Overcast,200,2014-02-16 04:54:00
11:54 PM,30.0,21.9,72,30.04,9.0,South,3.5,-,N/A,,Overcast,190,2014-02-16 05:54:00